Kosmos-1888

operational
NORAD ID: 18384 Int'l Des: 1987-084 Owner: UNKS Country: SU
HEOCIRCULAR

About Kosmos-1888

Description loading...

Live Position

Loading 3D Globe...

Upcoming Passes

Altitude History

Altitude vs Time

uPlot chart will show altitude changes over time

Two-Line Element Set

1 18384U 87084A 26102.70118125 -.00000240 00000-0 00000+0 0 9993
2 18384 10.8895 326.5068 0001620 304.5047 274.0889 1.00156698141032
Epoch: Apr 12, 2026 • Age: 15 hours

Current Status

Altitude 35822.7 km
Velocity 3.07 km/s
Sub-Earth Point 10.75°N, 91.39°E
Launch Date Oct 1, 1987
Age 38.5 years
Type other

Technical Details

Classification Payload
Mass 2100.00 kg
Dry Mass 1900.00 kg
Total Mass 2100.00 kg
Length 5.50 m
Diameter 2.50 m
Span 9.00 m
Shape Cyl + 2 Pan + Plate
Manufacturer NPOPM/NPOL
Bus Type Geizer
Phase Status In Orbit
Owner/State UNKS/SU

Large Constellations

Loading constellations...